• In Italy
  • List of Countries
  • For 7 days
  • Water Temperature
  • Satellite Maps
  • Weather Map
  • Weather Widgets
  • user-avatar
    Login

    Hourly Weather Ashdod

    Today, 23 July, Monday

    Time Temperature Precipitation Wind Pressure Humidity
    00:00 +30°C° 0 mm 2 mps 753 mmHg 71%
    01:00 +29°C° 0 mm 3 mps 753 mmHg 74%
    02:00 +29°C° 0 mm 3 mps 753 mmHg 76%
    03:00 +29°C° 0 mm 3 mps 753 mmHg 79%
    04:00 +29°C° 0 mm 3 mps 753 mmHg 81%
    05:00 +28°C° 0 mm 3 mps 753 mmHg 84%
    06:00 +29°C° 0 mm 3 mps 753 mmHg 79%
    07:00 +30°C° 0 mm 4 mps 753 mmHg 74%
    08:00 +32°C° 0 mm 4 mps 753 mmHg 69%
    09:00 +33°C° 0 mm 5 mps 753 mmHg 63%
    10:00 +35°C° 0 mm 5 mps 753 mmHg 56%
    11:00 +36°C° 0 mm 5 mps 753 mmHg 50%
    12:00 +36°C° 0 mm 6 mps 753 mmHg 48%
    13:00 +38°C° 0 mm 6 mps 753 mmHg 46%
    14:00 +38°C° 0 mm 6 mps 752 mmHg 44%
    15:00 +36°C° 0 mm 5 mps 752 mmHg 45%
    16:00 +36°C° 0 mm 4 mps 752 mmHg 46%
    17:00 +35°C° 0 mm 4 mps 752 mmHg 47%
    18:00 +34°C° 0 mm 3 mps 752 mmHg 50%
    19:00 +32°C° 0 mm 2 mps 752 mmHg 54%
    20:00 +32°C° 0 mm 1 mps 752 mmHg 57%
    21:00 +31°C° 0 mm 1 mps 752 mmHg 59%
    22:00 +31°C° 0 mm 1 mps 752 mmHg 60%
    23:00 +30°C° 0 mm 1 mps 753 mmHg 61%

    Tomorrow, 24 July, Tuesday

    Time Temperature Precipitation Wind Pressure Humidity
    00:00 +30°C° 0 mm 2 mps 752 mmHg 63%
    01:00 +30°C° 0 mm 2 mps 752 mmHg 66%
    02:00 +29°C° 0 mm 2 mps 752 mmHg 68%
    03:00 +29°C° 0 mm 2 mps 752 mmHg 70%
    04:00 +29°C° 0 mm 3 mps 752 mmHg 73%
    05:00 +28°C° 0 mm 3 mps 752 mmHg 75%
    06:00 +29°C° 0 mm 3 mps 752 mmHg 69%
    07:00 +31°C° 0 mm 3 mps 753 mmHg 62%
    08:00 +33°C° 0 mm 3 mps 753 mmHg 56%
    09:00 +34°C° 0 mm 4 mps 753 mmHg 50%
    10:00 +36°C° 0 mm 4 mps 753 mmHg 45%
    11:00 +37°C° 0 mm 4 mps 753 mmHg 39%
    12:00 +39°C° 0 mm 5 mps 752 mmHg 38%
    13:00 +39°C° 0 mm 5 mps 752 mmHg 38%
    14:00 +39°C° 0 mm 5 mps 752 mmHg 38%
    15:00 +39°C° 0 mm 5 mps 752 mmHg 40%
    16:00 +37°C° 0 mm 5 mps 752 mmHg 41%
    17:00 +36°C° 0 mm 5 mps 752 mmHg 43%
    18:00 +35°C° 0 mm 3 mps 752 mmHg 48%
    19:00 +34°C° 0 mm 2 mps 753 mmHg 53%
    20:00 +32°C° 0 mm 1 mps 753 mmHg 58%
    21:00 +32°C° 0 mm 1 mps 753 mmHg 57%
    22:00 +32°C° 0 mm 1 mps 753 mmHg 56%
    23:00 +31°C° 0 mm 1 mps 753 mmHg 55%

    Day after tomorrow, 25 July, Wednesday

    Time Temperature Precipitation Wind Pressure Humidity
    00:00 +31°C° 0 mm 1 mps 753 mmHg 55%
    01:00 +31°C° 0 mm 1 mps 753 mmHg 54%
    02:00 +30°C° 0 mm 1 mps 753 mmHg 54%
    03:00 +30°C° 0 mm 2 mps 753 mmHg 53%
    04:00 +30°C° 0 mm 2 mps 753 mmHg 52%
    05:00 +30°C° 0 mm 2 mps 753 mmHg 51%
    06:00 +32°C° 0 mm 2 mps 753 mmHg 44%
    07:00 +35°C° 0 mm 2 mps 753 mmHg 37%
    08:00 +37°C° 0 mm 2 mps 754 mmHg 29%
    09:00 +38°C° 0 mm 2 mps 754 mmHg 28%
    10:00 +39°C° 0 mm 2 mps 754 mmHg 26%
    11:00 +40°C° 0 mm 2 mps 754 mmHg 24%
    12:00 +40°C° 0 mm 3 mps 753 mmHg 25%
    13:00 +42°C° 0 mm 4 mps 753 mmHg 25%
    14:00 +42°C° 0 mm 5 mps 753 mmHg 26%
    15:00 +41°C° 0 mm 5 mps 753 mmHg 29%
    16:00 +40°C° 0 mm 5 mps 753 mmHg 33%
    17:00 +39°C° 0 mm 5 mps 753 mmHg 36%
    18:00 +37°C° 0 mm 5 mps 753 mmHg 38%
    19:00 +36°C° 0 mm 4 mps 753 mmHg 39%
    20:00 +36°C° 0 mm 3 mps 753 mmHg 41%
    21:00 +35°C° 0 mm 3 mps 753 mmHg 44%
    22:00 +34°C° 0 mm 3 mps 753 mmHg 47%
    23:00 +33°C° 0 mm 3 mps 754 mmHg 50%

    26 July, Thursday

    Time Temperature Precipitation Wind Pressure Humidity
    00:00 +33°C° 0 mm 3 mps 754 mmHg 56%
    01:00 +31°C° 0 mm 3 mps 754 mmHg 62%
    02:00 +30°C° 0 mm 3 mps 754 mmHg 69%
    03:00 +30°C° 0 mm 3 mps 754 mmHg 73%
    04:00 +29°C° 0 mm 2 mps 754 mmHg 77%
    05:00 +29°C° 0 mm 2 mps 754 mmHg 81%
    06:00 +30°C° 0 mm 1 mps 754 mmHg 74%
    07:00 +31°C° 0 mm 1 mps 755 mmHg 67%
    08:00 +32°C° 0 mm 1 mps 755 mmHg 60%
    09:00 +33°C° 0 mm 1 mps 755 mmHg 54%
    10:00 +36°C° 0 mm 2 mps 755 mmHg 48%
    11:00 +37°C° 0 mm 2 mps 754 mmHg 41%
    12:00 +37°C° 0 mm 3 mps 754 mmHg 42%
    13:00 +37°C° 0 mm 4 mps 754 mmHg 42%
    14:00 +39°C° 0 mm 5 mps 754 mmHg 42%
    15:00 +37°C° 0 mm 5 mps 754 mmHg 44%
    16:00 +36°C° 0 mm 5 mps 754 mmHg 46%
    17:00 +35°C° 0 mm 5 mps 754 mmHg 48%
    18:00 +34°C° 0 mm 5 mps 754 mmHg 51%
    19:00 +33°C° 0 mm 4 mps 754 mmHg 54%
    20:00 +31°C° 0 mm 3 mps 755 mmHg 57%
    21:00 +31°C° 0 mm 3 mps 755 mmHg 58%
    22:00 +31°C° 0 mm 2 mps 755 mmHg 58%
    23:00 +30°C° 0 mm 2 mps 755 mmHg 59%

    27 July, Friday

    Time Temperature Precipitation Wind Pressure Humidity
    00:00 +30°C° 0 mm 2 mps 755 mmHg 61%
    01:00 +29°C° 0 mm 2 mps 755 mmHg 63%
    02:00 +29°C° 0 mm 2 mps 755 mmHg 65%
    03:00 +29°C° 0 mm 2 mps 755 mmHg 68%
    04:00 +28°C° 0 mm 1 mps 755 mmHg 70%
    05:00 +28°C° 0 mm 1 mps 755 mmHg 72%
    06:00 +29°C° 0 mm 1 mps 755 mmHg 68%
    07:00 +29°C° 0 mm 1 mps 755 mmHg 63%
    08:00 +30°C° 0 mm 1 mps 755 mmHg 59%
    09:00 +31°C° 0 mm 1 mps 755 mmHg 52%
    10:00 +34°C° 0 mm 2 mps 755 mmHg 46%
    11:00 +35°C° 0 mm 2 mps 755 mmHg 40%
    12:00 +35°C° 0 mm 3 mps 754 mmHg 40%
    13:00 +36°C° 0 mm 4 mps 754 mmHg 40%
    14:00 +36°C° 0 mm 5 mps 754 mmHg 40%
    15:00 +35°C° 0 mm 5 mps 754 mmHg 43%
    16:00 +34°C° 0 mm 5 mps 753 mmHg 46%
    17:00 +33°C° 0 mm 5 mps 753 mmHg 50%
    18:00 +33°C° 0 mm 5 mps 754 mmHg 54%
    19:00 +32°C° 0 mm 4 mps 754 mmHg 59%
    20:00 +30°C° 0 mm 4 mps 754 mmHg 64%
    21:00 +29°C° 0 mm 3 mps 754 mmHg 65%
    22:00 +29°C° 0 mm 3 mps 754 mmHg 66%
    23:00 +29°C° 0 mm 2 mps 754 mmHg 67%

    28 July, Saturday

    Time Temperature Precipitation Wind Pressure Humidity
    00:00 +28°C° 0 mm 2 mps 754 mmHg 68%
    01:00 +28°C° 0 mm 2 mps 754 mmHg 69%
    02:00 +28°C° 0 mm 2 mps 754 mmHg 71%
    03:00 +28°C° 0 mm 2 mps 754 mmHg 72%
    04:00 +27°C° 0 mm 2 mps 754 mmHg 73%
    05:00 +27°C° 0 mm 2 mps 754 mmHg 74%
    06:00 +28°C° 0 mm 2 mps 754 mmHg 69%
    07:00 +29°C° 0 mm 3 mps 754 mmHg 64%
    08:00 +30°C° 0 mm 3 mps 754 mmHg 59%
    09:00 +31°C° 0 mm 3 mps 754 mmHg 54%
    10:00 +33°C° 0 mm 3 mps 754 mmHg 48%
    11:00 +34°C° 0 mm 4 mps 753 mmHg 43%
    12:00 +34°C° 0 mm 4 mps 753 mmHg 43%
    13:00 +34°C° 0 mm 5 mps 753 mmHg 43%
    14:00 +35°C° 0 mm 5 mps 753 mmHg 43%
    15:00 +34°C° 0 mm 5 mps 753 mmHg 46%
    16:00 +33°C° 0 mm 5 mps 753 mmHg 49%
    17:00 +33°C° 0 mm 5 mps 752 mmHg 53%
    18:00 +32°C° 0 mm 4 mps 753 mmHg 56%
    19:00 +30°C° 0 mm 3 mps 753 mmHg 60%
    20:00 +29°C° 0 mm 3 mps 753 mmHg 64%
    21:00 +29°C° 0 mm 2 mps 753 mmHg 64%
    22:00 +29°C° 0 mm 2 mps 754 mmHg 65%
    23:00 +28°C° 0 mm 1 mps 754 mmHg 65%
    Show more